Regional Weather Roundup
Issued by NWS Sioux Falls, SD

Home | Current Version | Previous Version | Text Only | Print | Product List | Glossary Off
Versions: 1 2 3 4 5 6 7 8 9 10 11 12 13 14 15 16 17 18 19 20 21 22 23 24 25 26 27 28 29 30 31 32 33 34 35 36 37 38 39 40 41 42 43 44 45 46 47 48 49 50

000
ASUS43 KFSD 060802
RWRFSD

WEATHER ROUNDUP FOR SE SOUTH DAKOTA/SW MINNESOTA/NW IOWA
NATIONAL WEATHER SERVICE SIOUX FALLS SD
200 AM CST TUE DEC 06 2016

NOTE: "FAIR" INDICATES FEW OR NO CLOUDS BELOW 12,000 FEET WITH NO
SIGNIFICANT WEATHER AND OR OBSTRUCTIONS TO VISIBILITY.


SDZ038>040-050-052>070-060900-
SOUTHEAST SOUTH DAKOTA

CITY           SKY/WX    TMP DP  RH WIND       PRES   REMARKS
CHAMBERLAIN    NOT AVBL
HURON          CLEAR     15   7  70 W25G33    29.84F WCI  -4
MADISON        FLURRIES  14  10  85 W26G33    29.79R WCI  -6
MITCHELL       CLEAR     17   9  70 NW22G30   29.89F WCI   0
SIOUX FALLS    PTCLDY    18  11  74 W22G35    29.83R WCI   1
WINNER         FAIR      16   8  71 W9        29.92R WCI   4
YANKTON        PTCLDY   N/A N/A N/A W24G33    29.90R
$$

MNZ071-072-080-081-089-090-097-098-060900-
SOUTHWEST MINNESOTA

CITY           SKY/WX    TMP DP  RH WIND       PRES   REMARKS
FAIRMONT       CLOUDY    30  24  78 W18G25    29.77R WCI  18
JACKSON        CLOUDY    27  19  74 W17G29    29.79R WCI  14
LUVERNE        CLOUDY    19  12  73 W29G37    29.81R WCI   1
MARSHALL       CLOUDY    21  15  78 W28G35    29.75R WCI   3
MONTEVIDEO     CLOUDY    25  16  68 W17G31    29.72S WCI  11
PIPESTONE      MOCLDY    18  14  86 W26G35    29.76R WCI  -1
REDWOOD FALLS  CLOUDY    26  17  68 W16G26    29.74R WCI  14
TRACY          CLOUDY    23  17  78 W17G26    29.76R WCI   9
WINDOM         CLOUDY    25  19  80 W23       29.75S WCI  10
WORTHINGTON    CLOUDY    22  17  81 W23G31    29.77R WCI   6
$$

IAZ001>003-012>014-020>022-031-032-NEZ013-014-SDZ071-060900-
NORTHWEST IOWA

CITY           SKY/WX    TMP DP  RH WIND       PRES   REMARKS
CHEROKEE       CLOUDY    27  21  77 NW15G22   29.86R WCI  16
DENISON        CLOUDY    30  23  74 NW14      29.84R WCI  20
ESTHERVILLE    CLOUDY    28  23  81 W17       29.78R WCI  16
LE MARS        MOCLDY    27  18  69 NW22G30   29.88R WCI  12
ORANGE CITY    CLOUDY    25  18  74 NW25G32   29.83R WCI   9
SHELDON        CLOUDY    25  19  80 W23       29.80S WCI  10
SIOUX CITY     CLOUDY    28  16  60 NW20G32   29.88R WCI  15
SPENCER        CLOUDY    26  18  71 W35       29.81R WCI   9
STORM LAKE     CLOUDY    27  19  74 NW25      29.82R WCI  11
$$

ABBREVIATIONS USED IN REMARKS
   TC - TEMPERATURE IN CELSIUS
  WCI - WIND CHILL INDEX
   HX - HEAT INDEX
  VSB - VISIBILITY




USA.gov is the U.S. government's official web portal to all federal, state and local government web resources and services.